Location: Borovka
(49.7741°N, 14.5280°E)
Time: 10:41:39
(UTC+00:00)

Gurwin Techsat 1B - Visible Passes

Search period start: 15 March 2026 00:00
Search period end: 25 March 2026 00:00
Orbit: 809 x 812 km, 99.0° (Epoch: 14 March)

Date Brightness Start Highest point End Pass type
(mag) Time Alt. Az. Time Alt. Az. Time Alt. Az.
15 Mar 9.2 04:05:40 10° NNE 04:10:57 63° ESE 04:16:11 10° S visible
16 Mar 10.0 03:42:15 10° NNE 03:47:15 40° E 03:52:13 10° SSE visible
17 Mar 10.8 03:19:02 10° NE 03:23:29 26° E 03:27:54 10° SSE visible
18 Mar 11.4 02:56:10 10° NE 02:59:38 17° E 03:03:03 10° SE visible
18 Mar 8.6 04:34:47 10° NNE 04:40:06 80° WNW 04:45:24 10° SSW visible
19 Mar 11.7 02:34:33 10° ENE 02:35:40 11° E 02:36:47 10° E visible
19 Mar 9.0 04:11:12 10° NNE 04:16:31 68° ESE 04:21:47 10° S visible
20 Mar 9.9 03:47:45 10° NNE 03:52:50 44° E 03:57:53 10° S visible
21 Mar 10.7 03:24:30 10° NE 03:29:05 29° E 03:33:39 10° SSE visible
22 Mar 11.3 03:01:32 10° NE 03:05:15 19° E 03:08:56 10° SE visible
23 Mar 11.6 02:39:23 10° ENE 02:41:19 12° E 02:43:14 10° ESE visible
23 Mar 8.9 04:16:45 10° NNE 04:22:05 75° ESE 04:27:22 10° S visible
24 Mar 9.7 03:53:17 10° NNE 03:58:26 48° E 04:03:32 10° S visible
